Location: Alpha Ridge Park
(39.3209°N, 76.9128°W)
Time: 06:26:04
(UTC-04:00)

AO-92 - Pass Details

Date: 04 July 2022
Orbit: 469 x 481 km, 97.4° (Epoch: 09 August)

Event Time Altitude Azimuth Distance (km) Brightness Sun altitude
Exits shadow 22:12:18 13° 81° (E) 1,472 ? -15.0°
Maximum altitude 22:13:02 14° 67° (ENE) 1,437 ? -15.1°
Drops below altitude 10° 22:14:54 10° 35° (NE) 1,665 ? -15.3°
Sets 22:17:47 0° 10° (N) 2,553 ? -15.7°
